This is the latest recevied weather packets stored in our database for station/object K3PPP. If no packets are shown the sender has not sent any weather packets the latest 10 day(s).
| Time | Temp. | Humidity | Pressure | Rain* | Wind** | Luminosity | Snow |
|---|---|---|---|---|---|---|---|
| 1777588216 | 6.67° C | 75% | 1013.3 hPa | 0 mm | - | 108 W/m² | - |
| 1777587911 | 6.67° C | 76% | 1013.5 hPa | 0 mm | - | 86 W/m² | - |
| 1777587608 | 7.22° C | 78% | 1013.2 hPa | 0 mm | - | 96 W/m² | - |
| 1777587302 | 7.22° C | 76% | 1013.5 hPa | 0 mm | - | 98 W/m² | - |
| 1777586998 | 6.67° C | 77% | 1013.5 hPa | 0 mm | - | 106 W/m² | - |
| 1777586694 | 6.67° C | 78% | 1013.5 hPa | 0 mm | - | 131 W/m² | - |
| 1777586389 | 6.11° C | 77% | 1013.5 hPa | 0 mm | - | 124 W/m² | - |
| 1777586089 | 6.11° C | 76% | 1013.2 hPa | 0 mm | - | 242 W/m² | - |
| 1777585788 | 6.11° C | 78% | 1013.2 hPa | 0 mm | - | 112 W/m² | - |
| 1777585482 | 6.67° C | 76% | 1013.1 hPa | 0 mm | - | 81 W/m² | - |
| 1777585179 | 6.67° C | 74% | 1013 hPa | 0 mm | - | 100 W/m² | - |
| 1777584874 | 6.67° C | 75% | 1013.3 hPa | 0 mm | - | 75 W/m² | - |
| 1777584572 | 7.22° C | 78% | 1013 hPa | 0 mm | - | 145 W/m² | - |
| 1777584268 | 6.11° C | 78% | 1012.9 hPa | 0 mm | - | 128 W/m² | - |
| 1777583963 | 6.67° C | 82% | 1012.8 hPa | 0 mm | - | 273 W/m² | - |
| 1777583658 | 5.56° C | 82% | 1013 hPa | 0 mm | - | 216 W/m² | - |
| 1777583358 | 5.56° C | 82% | 1012.9 hPa | 0 mm | - | 94 W/m² | - |
| 1777583053 | 5.56° C | 82% | 1012.9 hPa | 0 mm | - | 96 W/m² | - |
| 1777582749 | 5.56° C | 82% | 1013 hPa | 0 mm | - | 98 W/m² | - |
| 1777582445 | 5.56° C | 84% | 1013 hPa | 0 mm | - | 90 W/m² | - |
| 1777582145 | 5.56° C | 83% | 1012.8 hPa | 0 mm | - | 46 W/m² | - |
| 1777581844 | 5.56° C | 83% | 1013 hPa | 0 mm | - | 61 W/m² | - |
| 1777581543 | 5.56° C | 83% | 1013 hPa | 0 mm | - | 80 W/m² | - |
| 1777581239 | 5.56° C | 84% | 1012.9 hPa | 0 mm | - | 103 W/m² | - |
| 1777580938 | 5.56° C | 85% | 1012.9 hPa | 0 mm | - | 139 W/m² | - |
* Rain latest hour (hover to see other rain measurements)
** Current wind speed in m/s (hover to see current wind gust speed)